Terug naar catalogus

ONEWEB-0546

ActiefCommunicatiePO
NORAD 56048·PAYLOAD·🇬🇧 United Kingdom

Gelanceerd Mar 26, 2023 vanaf Satish Dhawan Space Centre

Loading…

Volgende Passages (komende 24 uur)

TLE

VersSource: CelesTrak SupGP

Epoch: Sep 14, 2026, 15:09 UTC

1 56048C 23043C   26257.63142778  .00000911  00000+0  23860-2 0  2573
2 56048  87.9156 211.0137 0001728  98.7040 296.5125 13.16595580    16

Volg ONEWEB-0546 in realtime met AllMySat

Download on the App Store